Weather History for Sedona, AZ

Change the Weather History Date:

Wednesday, May 1, 2013

  Actual Average Record
Temperature  
Mean Temperature 71 °F -  
Max Temperature 82 °F 78 °F 82 °F (2013)
Min Temperature 59 °F 44 °F 41 °F (2011)
Cooling Degree Days 6    
Growing Degree Days 21 (Base 50)    
Moisture  
Dew Point 18 °F    
Average Humidity 14    
Maximum Humidity 20    
Minimum Humidity 7    
Precipitation  
Precipitation 0.00 in - - ()
Sea Level Pressure  
Sea Level Pressure 30.06 in    
Wind  
Wind Speed 8 mph (SSE)    
Max Wind Speed 22 mph    
Max Gust Speed 34 mph    
Visibility 10 miles    
Events      
Averages and records for this station are not official NWS values.
T = Trace of Precipitation, MM = Missing Value Source: NWS Daily Summary

Daily Weather History Graph

Daily Weather History Graph

Search for Another Location

Airport:

Trip Planner

Search our weather history database for the weather conditions in past years. The results will help you decide how hot, cold, wet, or windy it might be!

Date:

Astronomy

May. 01, 2013 Rise Set
Actual Time 5:36 AM MST 7:12 PM MST
Civil Twilight 5:09 AM MST 7:39 PM MST
Nautical Twilight 4:36 AM MST 8:12 PM MST
Astronomical Twilight 4:02 AM MST 8:46 PM MST
Moon 12:24 AM MST (5/1) 11:18 AM MST (5/1)
Length of Visible Light 14h 30m
Length of Day
13h 36m
Waning Gibbous, 58% of the Moon is Illuminated
May 1
Waning Gibbous
May 2
Last Quarter
May 9
New
May 17
First Quarter
May 24
Full

Hourly Weather History & Observations

Time (MST) Temp. Dew Point Humidity Pressure Visibility Wind Dir Wind Speed Gust Speed Precip Events Conditions
12:15 AM 68.0 °F 15.8 °F 13% 29.94 in 10.0 mi South 5.8 mph - N/A   Clear
12:35 AM 64.4 °F 15.8 °F 15% 29.95 in 10.0 mi SW 3.5 mph - N/A   Clear
12:55 AM 66.2 °F 15.8 °F 14% 29.95 in 10.0 mi SSW 4.6 mph - N/A   Clear
1:15 AM 64.4 °F 15.8 °F 15% 29.95 in 10.0 mi South 6.9 mph - N/A   Clear
1:35 AM 64.4 °F 17.6 °F 16% 29.95 in 10.0 mi South 6.9 mph - N/A   Clear
1:55 AM 64.4 °F 17.6 °F 16% 29.95 in 10.0 mi South 5.8 mph - N/A   Clear
2:15 AM 64.4 °F 17.6 °F 16% 29.96 in 10.0 mi SE 3.5 mph - N/A   Clear
2:35 AM 62.6 °F 17.6 °F 18% 29.96 in 10.0 mi SE 4.6 mph - N/A   Clear
2:55 AM 64.4 °F 17.6 °F 16% 29.96 in 10.0 mi Calm Calm - N/A   Clear
3:15 AM 64.4 °F 17.6 °F 16% 29.96 in 10.0 mi SSE 3.5 mph - N/A   Clear
3:35 AM 62.6 °F 17.6 °F 18% 29.97 in 10.0 mi ESE 4.6 mph - N/A   Clear
3:55 AM 60.8 °F 19.4 °F 20% 29.97 in 10.0 mi ESE 4.6 mph - N/A   Clear
4:15 AM 60.8 °F 19.4 °F 20% 29.98 in 10.0 mi SE 5.8 mph - N/A   Clear
4:35 AM 60.8 °F 19.4 °F 20% 29.98 in 10.0 mi ESE 5.8 mph - N/A   Clear
4:55 AM 60.8 °F 19.4 °F 20% 29.99 in 10.0 mi SE 5.8 mph - N/A   Clear
5:15 AM 60.8 °F 17.6 °F 19% 30.00 in 10.0 mi SE 6.9 mph - N/A   Clear
5:35 AM 60.8 °F 17.6 °F 19% 30.00 in 10.0 mi SE 4.6 mph - N/A   Clear
5:55 AM 60.8 °F 19.4 °F 20% 30.02 in 10.0 mi NE 6.9 mph - N/A   Clear
6:15 AM 60.8 °F 19.4 °F 20% 30.03 in 10.0 mi NE 5.8 mph - N/A   Clear
6:35 AM 60.8 °F 19.4 °F 20% 30.04 in 10.0 mi NE 9.2 mph - N/A   Clear
6:55 AM 60.8 °F 19.4 °F 20% 30.05 in 10.0 mi NE 9.2 mph - N/A   Clear
7:15 AM 62.6 °F 21.2 °F 20% 30.05 in 10.0 mi NE 6.9 mph - N/A   Clear
7:35 AM 62.6 °F 21.2 °F 20% 30.06 in 10.0 mi NNE 6.9 mph - N/A   Clear
7:55 AM 66.2 °F 23.0 °F 19% 30.06 in 10.0 mi SE 3.5 mph - N/A   Clear
8:15 AM 69.8 °F 19.4 °F 15% 30.06 in 10.0 mi SE 4.6 mph - N/A   Clear
8:35 AM 69.8 °F 19.4 °F 15% 30.06 in 10.0 mi South 3.5 mph - N/A   Clear
8:55 AM 71.6 °F 21.2 °F 15% 30.07 in 10.0 mi South 6.9 mph - N/A   Clear
9:15 AM 73.4 °F 21.2 °F 14% 30.07 in 10.0 mi SSW 5.8 mph - N/A   Clear
9:35 AM 73.4 °F 21.2 °F 14% 30.07 in 10.0 mi South 5.8 mph - N/A   Clear
9:55 AM 75.2 °F 21.2 °F 13% 30.08 in 10.0 mi South 8.1 mph - N/A   Clear
10:15 AM 77.0 °F 23.0 °F 13% 30.08 in 10.0 mi SSE 8.1 mph - N/A   Clear
10:35 AM 75.2 °F 23.0 °F 14% 30.08 in 10.0 mi SW 6.9 mph - N/A   Clear
10:55 AM 75.2 °F 23.0 °F 14% 30.08 in 10.0 mi West 4.6 mph - N/A   Clear
11:15 AM 75.2 °F 23.0 °F 14% 30.08 in 10.0 mi Calm Calm - N/A   Clear
11:35 AM 77.0 °F 24.8 °F 14% 30.08 in 10.0 mi South 8.1 mph - N/A   Clear
11:55 AM 78.8 °F 26.6 °F 15% 30.08 in 10.0 mi South 9.2 mph - N/A   Clear
12:15 PM 78.8 °F 26.6 °F 15% 30.08 in 10.0 mi SSW 9.2 mph - N/A   Clear
12:35 PM 80.6 °F 26.6 °F 14% 30.07 in 10.0 mi South 9.2 mph - N/A   Clear
12:55 PM 80.6 °F 28.4 °F 15% 30.07 in 10.0 mi West 13.8 mph 20.7 mph N/A   Clear
1:15 PM 80.6 °F 28.4 °F 15% 30.07 in 10.0 mi West 8.1 mph 17.3 mph N/A   Clear
1:35 PM 80.6 °F 28.4 °F 15% 30.07 in 10.0 mi NNW 8.1 mph - N/A   Clear
1:55 PM 80.6 °F 28.4 °F 15% 30.06 in 10.0 mi WNW 13.8 mph 25.3 mph N/A   Clear
2:15 PM 80.6 °F 28.4 °F 15% 30.06 in 10.0 mi West 11.5 mph 17.3 mph N/A   Clear
2:35 PM 82.4 °F 26.6 °F 13% 30.06 in 10.0 mi SW 10.4 mph 19.6 mph N/A   Clear
2:55 PM 82.4 °F 26.6 °F 13% 30.05 in 10.0 mi West 12.7 mph 26.5 mph N/A   Clear
3:15 PM 82.4 °F 26.6 °F 13% 30.05 in 10.0 mi WNW 13.8 mph 18.4 mph N/A   Clear
3:35 PM 82.4 °F 24.8 °F 12% 30.05 in 10.0 mi West 13.8 mph 23.0 mph N/A   Clear
3:55 PM 82.4 °F 23.0 °F 11% 30.05 in 10.0 mi West 5.8 mph 23.0 mph N/A   Clear
4:15 PM 82.4 °F 23.0 °F 11% 30.05 in 10.0 mi West 12.7 mph 20.7 mph N/A   Clear
4:35 PM 80.6 °F 23.0 °F 12% 30.06 in 10.0 mi WNW 15.0 mph - N/A   Clear
4:55 PM 80.6 °F 21.2 °F 11% 30.05 in 10.0 mi NW 10.4 mph 18.4 mph N/A   Clear
5:15 PM 82.4 °F 21.2 °F 10% 30.05 in 10.0 mi West 16.1 mph 19.6 mph N/A   Clear
5:35 PM 80.6 °F 21.2 °F 11% 30.05 in 10.0 mi NW 12.7 mph 19.6 mph N/A   Clear
5:55 PM 80.6 °F 21.2 °F 11% 30.06 in 10.0 mi NW 11.5 mph 16.1 mph N/A   Clear
6:15 PM 78.8 °F 19.4 °F 11% 30.06 in 10.0 mi NW 15.0 mph - N/A   Clear
6:35 PM 78.8 °F 17.6 °F 10% 30.06 in 10.0 mi NW 12.7 mph - N/A   Clear
6:55 PM 77.0 °F 12.2 °F 9% 30.08 in 10.0 mi North 20.7 mph 26.5 mph N/A   Clear
7:15 PM 73.4 °F 8.6 °F 8% 30.09 in 10.0 mi North 16.1 mph 24.2 mph N/A   Clear
7:35 PM 71.6 °F 5.0 °F 7% 30.10 in 10.0 mi North 12.7 mph 18.4 mph N/A   Clear
7:55 PM 71.6 °F 3.2 °F 7% 30.11 in 10.0 mi NNE 13.8 mph 23.0 mph N/A   Clear
8:35 PM 68.0 °F 1.4 °F 7% 30.14 in 10.0 mi NE 11.5 mph 16.1 mph N/A   Clear
8:55 PM 68.0 °F 1.4 °F 7% 30.16 in 10.0 mi NE 10.4 mph 16.1 mph N/A   Clear
9:15 PM 68.0 °F 1.4 °F 7% 30.17 in 10.0 mi ENE 15.0 mph 21.9 mph N/A   Clear
9:35 PM 64.4 °F 1.4 °F 8% 30.19 in 10.0 mi ENE 11.5 mph 23.0 mph N/A   Clear
9:55 PM 62.6 °F 1.4 °F 9% 30.20 in 10.0 mi NE 19.6 mph 29.9 mph N/A   Clear
10:15 PM 62.6 °F 3.2 °F 9% 30.21 in 10.0 mi ENE 20.7 mph 32.2 mph N/A   Clear
10:35 PM 62.6 °F 3.2 °F 9% 30.21 in 10.0 mi ENE 19.6 mph 28.8 mph N/A   Clear
10:55 PM 60.8 °F 3.2 °F 10% 30.22 in 10.0 mi ENE 21.9 mph 34.5 mph N/A   Clear
11:15 PM 60.8 °F 3.2 °F 10% 30.23 in 10.0 mi ENE 21.9 mph 33.4 mph N/A   Clear
11:35 PM 59.0 °F 3.2 °F 11% 30.24 in 10.0 mi ENE 21.9 mph 31.1 mph N/A   Clear